Temp
6 6 5 5 5 4 3 3 3 3 3 3 3 3 2 2 2 1 1 0 1 1 1 1 1 1 2 2 3 3 4 4
5 5 4 4 4 3 2 2 2 2 2 2 2 2 2 1 1 0 -0 0 0 -0 -0 -0 0 0 1 1 2 2 3 4
4 4 3 3 2 2 1 1 1 1 1 1 1 1 0 0 -0 -1 -1 -1 -1 -1 -1 -1 -0 -0 0 0 1 2 2 3
2 2 2 2 1 1 1 0 1 1 1 1 0 0 -0 -1 -1 -1 -1 -2 -2 -1 -1 -1 -1 -1 -1 -0 0 1 1 1
2 2 2 0 -0 -0 -0 -0 0 0 0 0 0 -1 -1 -1 -1 -1 -2 -2 -2 -2 -2 -2 -2 -2 -2 -1 -1 -1 -0 -0
2 1 0 -1 -1 -1 -0 -1 -0 -1 -0 -1 -1 -1 -1 -1 -2 -2 -2 -2 -2 -2 -2 -2 -2 -3 -3 -2 -2 -2 -2 -1
1 -0 -1 -2 -1 -1 -1 -1 -1 -1 -1 -1 -2 -2 -2 -2 -2 -2 -3 -3 -3 -3 -3 -3 -3 -3 -3 -3 -3 -3 -3 -3
0 -1 -2 -2 -2 -2 -2 -1 -1 -1 -2 -2 -2 -2 -2 -3 -3 -3 -4 -3 -3 -4 -3 -4 -4 -4 -4 -4 -4 -4 -4 -4
-0 -2 -2 -1 -2 -2 -2 -2 -2 -2 -3 -3 -3 -3 -3 -4 -4 -4 -4 -4 -4 -4 -4 -4 -4 -4 -4 -4 -4 -4 -4 -4
-0 -1 -1 -1 -2 -2 -2 -3 -3 -3 -3 -4 -4 -4 -4 -5 -5 -5 -5 -5 -5 -5 -5 -5 -5 -5 -5 -5 -5 -5 -4 -5
-1 -1 -1 -1 -2 -2 -2 -3 -3 -3 -3 -4 -4 -5 -5 -6 -6 -6 -5 -5 -5 -5 -5 -5 -5 -5 -5 -5 -5 -5 -5 -5
-1 -1 -1 -2 -2 -2 -2 -3 -3 -4 -4 -5 -5 -6 -6 -6 -6 -6 -5 -6 -6 -6 -6 -6 -6 -6 -6 -6 -6 -6 -6 -5
-1 -2 -2 -2 -2 -3 -3 -4 -4 -5 -5 -5 -6 -6 -6 -6 -6 -6 -6 -6 -6 -6 -6 -6 -7 -7 -7 -7 -7 -6 -6 -6
-2 -2 -2 -2 -3 -3 -4 -4 -5 -5 -5 -5 -6 -6 -7 -7 -6 -6 -6 -7 -7 -7 -7 -7 -7 -7 -7 -7 -7 -7 -7 -7
-2 -2 -3 -3 -3 -3 -4 -5 -6 -6 -6 -6 -7 -7 -7 -7 -7 -7 -7 -7 -7 -7 -7 -8 -8 -8 -8 -8 -7 -7 -7 -7
-3 -3 -3 -3 -3 -4 -5 -6 -6 -7 -7 -7 -7 -7 -7 -7 -7 -7 -7 -7 -8 -8 -8 -8 -8 -8 -8 -8 -8 -8 -8 -8
-3 -3 -3 -3 -4 -5 -6 -6 -6 -7 -7 -7 -8 -7 -7 -7 -7 -7 -8 -8 -8 -8 -8 -9 -9 -9 -9 -8 -8 -8 -8 -8
-3 -3 -3 -4 -5 -5 -6 -6 -6 -6 -7 -8 -8 -7 -7 -8 -8 -8 -8 -9 -9 -9 -9 -9 -9 -9 -9 -9 -9 -9 -9 -8
-3 -3 -4 -4 -5 -5 -6 -6 -6 -7 -8 -8 -8 -8 -8 -8 -8 -8 -9 -9 -9 -9 -10 -10 -10 -10 -10 -9 -9 -9 -9 -9
Height
3102 3102 3103 3104 3104 3105 3105 3104 3103 3102 3101 3099 3097 3095 3093 3092 3089 3087 3084 3083 3080 3078 3075 3071 3067 3063 3059 3055 3051 3048 3044 3041
3096 3097 3097 3097 3099 3100 3100 3100 3099 3097 3096 3095 3093 3090 3089 3087 3084 3083 3079 3077 3074 3071 3068 3065 3061 3057 3052 3047 3043 3039 3035 3029
3088 3089 3090 3091 3094 3095 3095 3094 3094 3093 3091 3089 3087 3086 3084 3082 3079 3078 3074 3071 3069 3067 3063 3060 3056 3051 3046 3041 3036 3031 3025 3019
3082 3084 3086 3088 3090 3092 3091 3089 3089 3087 3086 3083 3082 3080 3078 3078 3075 3072 3069 3067 3064 3061 3059 3054 3050 3046 3041 3035 3029 3021 3017 3012
3075 3077 3079 3082 3086 3086 3085 3084 3084 3083 3081 3079 3078 3075 3075 3072 3070 3068 3065 3062 3059 3056 3054 3050 3045 3041 3036 3031 3024 3017 3009 3005
3069 3072 3074 3077 3080 3080 3079 3079 3079 3079 3077 3075 3073 3072 3071 3068 3066 3064 3061 3058 3055 3052 3049 3046 3041 3037 3032 3027 3023 3014 3008 2999
3064 3067 3071 3075 3076 3075 3075 3076 3075 3073 3071 3070 3070 3068 3067 3064 3062 3059 3056 3054 3051 3048 3044 3042 3038 3034 3031 3026 3021 3015 3008 2998
3062 3065 3069 3072 3072 3072 3073 3072 3070 3069 3068 3066 3065 3063 3062 3060 3057 3055 3052 3050 3047 3045 3041 3038 3034 3030 3027 3023 3019 3014 3007 2999
3062 3064 3066 3067 3067 3067 3067 3066 3066 3065 3064 3063 3061 3060 3058 3055 3052 3050 3049 3047 3043 3040 3036 3033 3030 3027 3023 3020 3016 3011 3006 2999
3061 3062 3064 3065 3064 3064 3063 3063 3061 3060 3059 3058 3057 3055 3052 3050 3048 3046 3044 3041 3038 3035 3032 3030 3026 3024 3021 3018 3014 3009 3005 3000
3059 3059 3060 3061 3061 3059 3057 3056 3055 3055 3055 3054 3053 3050 3047 3045 3043 3041 3039 3036 3034 3032 3030 3027 3024 3021 3019 3015 3012 3008 3004 3000
3055 3055 3056 3056 3056 3055 3053 3052 3052 3052 3050 3049 3047 3045 3042 3040 3038 3037 3035 3034 3032 3029 3027 3025 3022 3020 3017 3014 3010 3007 3003 2999
3051 3051 3051 3050 3050 3049 3048 3048 3047 3046 3045 3044 3042 3039 3037 3036 3035 3034 3033 3031 3029 3027 3025 3023 3021 3018 3015 3013 3009 3006 3002 3000
3045 3044 3043 3043 3043 3043 3042 3041 3041 3041 3040 3038 3037 3035 3033 3032 3032 3031 3030 3029 3027 3025 3023 3021 3019 3017 3014 3012 3008 3005 3002 2999
3035 3034 3035 3036 3036 3036 3036 3036 3035 3035 3034 3033 3032 3031 3030 3030 3029 3029 3028 3026 3024 3023 3021 3020 3018 3016 3014 3011 3009 3006 3002 2999
3026 3025 3028 3029 3029 3029 3030 3030 3030 3029 3029 3029 3028 3028 3028 3027 3027 3026 3025 3024 3023 3021 3020 3018 3017 3015 3013 3011 3009 3006 3003 3000
3018 3018 3019 3020 3022 3023 3023 3024 3024 3024 3024 3025 3024 3025 3025 3025 3025 3024 3023 3022 3021 3020 3018 3017 3016 3014 3013 3011 3008 3006 3003 3000
3012 3012 3013 3014 3015 3016 3017 3018 3018 3019 3020 3020 3021 3022 3022 3022 3022 3021 3021 3020 3019 3018 3017 3016 3015 3014 3012 3010 3008 3005 3002 2999
3006 3006 3006 3007 3008 3010 3011 3012 3013 3014 3015 3016 3018 3019 3020 3019 3019 3019 3018 3018 3017 3016 3016 3015 3014 3013 3011 3009 3007 3004 3001 2998
Wind_Speed
22 21 22 23 23 23 21 20 19 20 20 21 22 23 25 26 25 25 24 26 28 30 31 32 33 35 37 39 41 42 44 46
25 25 26 27 26 23 19 17 17 16 17 19 22 24 24 23 23 24 25 26 27 27 28 29 30 31 33 36 38 40 41 45
26 28 30 29 26 22 17 15 16 17 19 22 21 21 23 23 22 22 22 24 26 27 27 28 29 29 30 31 33 35 36 40
29 30 31 30 27 20 15 15 17 20 25 24 24 26 23 21 20 22 23 23 24 25 26 27 28 30 31 32 33 33 32 32
27 29 32 30 23 17 16 18 21 24 29 25 26 24 20 20 22 24 24 25 26 27 28 28 27 28 29 32 34 33 32 29
25 29 31 28 22 18 20 23 26 27 27 26 24 19 19 21 23 25 25 26 27 28 28 28 27 27 27 28 31 34 36 32
18 24 25 22 19 18 21 25 25 26 24 22 20 19 21 23 23 26 25 25 26 26 26 26 25 24 24 24 27 30 35 37
5 5 8 14 14 16 17 18 21 22 19 19 19 20 22 22 26 23 22 23 23 23 23 23 22 21 22 22 23 26 31 35
2 2 8 13 19 18 17 19 20 20 20 18 19 21 21 24 22 20 21 21 21 21 21 22 20 20 19 19 20 23 27 31
13 13 15 17 17 17 20 18 18 16 18 20 21 22 24 22 20 20 18 20 20 20 20 20 19 19 19 19 19 20 22 26
11 13 14 13 18 20 20 22 22 21 21 22 23 24 22 21 18 17 17 18 18 18 18 18 18 18 18 18 19 20 20 22
12 16 16 18 19 21 23 23 23 22 22 22 22 23 19 15 15 15 15 16 16 16 16 16 16 16 16 17 18 18 18 19
17 20 22 23 23 24 25 25 24 22 22 23 21 17 15 14 14 14 14 13 14 14 14 13 13 14 14 15 15 15 16 17
24 27 28 27 27 26 26 25 21 23 22 19 16 15 14 12 12 13 13 13 13 13 13 12 12 12 12 14 14 14 15 16
33 34 31 28 29 28 25 24 22 22 21 16 14 13 11 11 11 11 11 11 11 10 10 11 11 12 13 13 13 13 15 16
31 38 34 30 30 27 24 23 20 22 18 12 12 12 11 10 10 9 10 9 8 7 8 9 11 12 13 13 13 13 15 16
24 23 25 25 25 24 24 21 19 19 14 12 11 11 10 9 7 9 8 7 6 6 7 8 9 10 11 11 13 14 15 16
21 23 24 22 22 22 20 21 21 16 13 12 11 11 9 8 8 7 6 5 5 5 6 6 7 9 10 12 13 15 16 18
19 19 19 20 20 20 20 19 16 14 13 12 13 11 10 8 8 7 6 5 5 4 5 6 7 9 11 13 15 17 18 20
Wind_Direction
268 272 274 271 273 277 285 293 293 294 300 303 306 309 308 307 309 309 310 310 309 309 309 309 308 306 303 299 295 292 288 283
267 266 266 268 269 274 282 288 293 301 301 306 307 309 309 307 307 308 311 312 314 316 316 316 315 313 310 306 301 296 290 285
265 264 264 264 267 273 280 287 307 314 315 313 312 312 309 305 304 307 314 316 316 316 316 318 319 320 322 321 314 304 297 290
270 271 273 274 271 275 282 307 308 313 313 311 310 307 303 304 311 318 317 315 314 315 317 320 323 326 328 331 330 322 311 298
263 264 264 263 269 273 291 303 301 309 311 303 297 298 300 309 314 314 313 314 315 317 318 320 324 327 331 335 339 340 333 320
262 260 260 261 264 272 281 287 299 297 292 292 294 292 298 308 310 311 310 312 314 315 317 318 324 327 332 339 343 348 350 343
258 258 260 263 265 284 285 290 286 289 292 290 291 295 301 303 306 308 308 310 311 312 315 318 322 325 328 338 346 352 356 356
252 231 250 258 276 278 284 296 297 295 286 284 288 294 297 301 305 302 304 306 308 311 315 318 322 325 327 333 345 352 356 1
344 247 261 275 273 283 284 294 291 283 277 287 294 294 294 300 299 298 302 305 310 315 319 319 322 326 326 330 339 351 356 5
295 287 269 283 272 277 300 299 303 294 297 297 298 299 299 297 297 303 311 314 318 321 321 320 328 331 332 337 342 348 354 3
270 269 276 279 289 293 298 303 307 303 303 301 300 296 295 298 303 310 317 319 318 319 321 326 332 333 337 341 346 349 353 359
250 258 264 279 281 287 285 292 295 295 299 300 298 297 296 299 308 313 316 316 317 322 325 329 332 336 340 344 351 353 357 360
252 260 263 271 280 283 284 286 290 291 295 299 298 293 292 299 304 310 313 316 319 322 327 330 336 341 346 351 356 0 10 11
258 256 258 270 277 282 285 285 290 292 293 295 291 287 290 297 302 308 314 321 325 328 328 335 342 348 355 357 2 8 16 21
255 251 255 269 275 277 281 282 285 285 287 285 282 281 284 293 302 309 319 324 327 331 340 345 352 357 6 4 7 14 19 22
269 259 256 268 270 273 274 277 277 278 284 278 272 271 280 292 299 312 318 321 326 338 348 354 357 1 1 1 6 13 15 18
265 262 255 263 264 262 267 269 269 270 269 259 259 265 275 280 289 301 304 309 318 334 350 359 1 0 360 1 6 9 10 9
251 251 256 252 248 252 259 263 262 257 248 246 249 256 261 267 279 283 296 307 325 340 348 357 0 359 357 355 357 357 356 355
266 268 262 255 250 252 256 255 247 242 233 237 243 248 255 257 269 275 281 292 309 321 332 341 344 345 345 345 345 346 346 345